Location: Wanzleben
(52.0609°N, 11.4408°E)
Time: 11:09:03
(UTC+00:00)

Cosmos 2227 Rocket - Pass Details

Date: 18 September 2020
Orbit: 840 x 844 km, 71.0° (Epoch: 25 October)

Event Time Altitude Azimuth Distance (km) Brightness Sun altitude
Rises 23:34:08 0° 329° (NNW) 3,407 6.0 -36.3°
Reaches altitude 10° 23:37:00 10° 342° (NNW) 2,469 5.2 -36.2°
Maximum altitude 23:41:44 26° 39° (NE) 1,592 4.0 -36.1°
Enters shadow 23:43:02 24° 61° (ENE) 1,674 4.0 -36.0°
